User: anonymous   Login
Location: Unspecified
(0.0000°N, 0.0000°E)
Time: 21:10:27
(UTC+00:00)
Language:

Vanguard 2 - Orbit

View from above orbital plane
View from above orbital plane
View from above satellite
View from above satellite

Ground track
Ground track

The orbit data is extracted from the following two-line orbital elements,

1    11U 59001A   19177.53324105 -.00000132  00000-0 -66686-4 0  9999
2    11  32.8688 315.3554 1468393  36.6537 332.6024 11.85617647574359
Epoch (UTC): 26 June 2019 12:47:52
Eccentricity: 0.1468393
inclination: 32.8688°
perigee height: 553 km
apogee height: 2939 km
right ascension of ascending node: 315.3554°
argument of perigee: 36.6537°
revolutions per day: 11.85617647
mean anomaly at epoch: 332.6024°
orbit number at epoch: 57435

The dashed part of the orbit path shows where the satellite is in the earth's shadow,  

DLR